Bangkok (Suvarnabhumi), Thailand

11:06 AM +07 on September 22, 2017 (GMT +0700)
Bangkok (Suvarnabhumi)

Weather History for VTBS - March, 2013

Change the Weather History Date:

Saturday, March 9, 2013

  Actual Average (VTBU) Record (VTBU)
Temperature  
Mean Temperature 85 °F -  
Max Temperature 91 °F 93 °F 98 °F (1998)
Min Temperature 79 °F 77 °F 73 °F (2005)
Cooling Degree Days 20    
Growing Degree Days 35 (Base 50)    
Moisture  
Dew Point 72 °F    
Average Humidity 67    
Maximum Humidity 83    
Minimum Humidity 43    
Precipitation  
Precipitation 0.43 in 0.06 in - ()
Sea Level Pressure  
Sea Level Pressure 29.86 in    
Wind  
Wind Speed 9 mph ()    
Max Wind Speed 15 mph    
Max Gust Speed -    
Visibility 6.0 miles    
Events      
Averages and records for this station are not official NWS values.
T = Trace of Precipitation, MM = Missing Value Source: Averaged Metar Reports

Daily Weather History Graph

Daily Weather History Graph

Search for Another Location

Airport or City:

Trip Planner

Search our weather history database for the weather conditions in past years. The results will help you decide how hot, cold, wet, or windy it might be!

Date:

Astronomy

Mar. 09, 2013 Rise Set
Actual Time 6:27 AM +07 6:25 PM +07
Civil Twilight 6:06 AM +07 6:47 PM +07
Nautical Twilight 5:41 AM +07 7:11 PM +07
Astronomical Twilight 5:16 AM +07 7:36 PM +07
Moon 4:08 AM +07 (3/9) 4:10 PM +07 (3/9)
Length of Visible Light 12h 40m
Length of Day
11h 58m
Waning Crescent, 8% of the Moon is Illuminated
Mar 9
Waning Crescent
Mar 12
New
Mar 20
First Quarter
Mar 27
Full
Apr 3
Last Quarter

Hourly Weather History & Observations

Time (+07) Temp. Heat Index Dew Point Humidity Pressure Visibility Wind Dir Wind Speed Gust Speed Precip Events Conditions
12:00 AM 82.4 °F 89.5 °F 75.2 °F 79% 29.89 in 5.6 mi SSW 13.8 mph - N/A   Mostly Cloudy
12:30 AM 82.4 °F 89.5 °F 75.2 °F 79% 29.89 in 6.2 mi SSW 15.0 mph - N/A   Mostly Cloudy
1:00 AM 82 °F - 76 °F 77% 29.86 in 4 mi SE 2.3 mph - -   Mist
1:00 AM 82.4 °F 89.5 °F 75.2 °F 79% 29.86 in 6.2 mi SSW 11.5 mph - N/A   Mostly Cloudy
1:30 AM 84.2 °F 92.3 °F 75.2 °F 74% 29.86 in 6.2 mi SSW 11.5 mph - N/A   Mostly Cloudy
2:00 AM 82.4 °F 89.5 °F 75.2 °F 79% 29.86 in 6.2 mi SSW 9.2 mph - N/A   Mostly Cloudy
2:30 AM 82.4 °F 88.2 °F 73.4 °F 74% 29.83 in 6.2 mi SSW 11.5 mph - N/A   Mostly Cloudy
3:00 AM 82.4 °F 88.2 °F 73.4 °F 74% 29.83 in 6.2 mi SSW 9.2 mph - N/A   Mostly Cloudy
3:30 AM 82.4 °F 89.5 °F 75.2 °F 79% 29.83 in 6.2 mi SSW 9.2 mph - N/A   Mostly Cloudy
4:00 AM 80.6 °F 85.4 °F 73.4 °F 79% 29.83 in 6.2 mi SSW 6.9 mph - N/A   Mostly Cloudy
4:30 AM 82.4 °F 89.5 °F 75.2 °F 79% 29.83 in 6.2 mi SSW 8.1 mph - N/A   Mostly Cloudy
5:00 AM 82.4 °F 88.2 °F 73.4 °F 74% 29.86 in 6.2 mi SW 6.9 mph - N/A   Mostly Cloudy
5:30 AM 80.6 °F 85.4 °F 73.4 °F 79% 29.86 in 6.2 mi SSW 5.8 mph - N/A   Mostly Cloudy
6:00 AM 78.8 °F - 73.4 °F 83% 29.86 in 6.2 mi SSW 6.9 mph - N/A   Mostly Cloudy
6:30 AM 78.8 °F - 73.4 °F 83% 29.86 in 5.6 mi SSW 6.9 mph - N/A   Mostly Cloudy
7:00 AM 82 °F - 76 °F 78% 29.86 in 4 mi Calm Calm - -   Mist
7:00 AM 80.6 °F 85.4 °F 73.4 °F 79% 29.89 in 5.6 mi SW 4.6 mph - N/A   Mostly Cloudy
7:30 AM 82.4 °F 89.5 °F 75.2 °F 79% 29.89 in 5.6 mi SSW 6.9 mph - N/A   Mostly Cloudy
8:00 AM 84.2 °F 92.3 °F 75.2 °F 74% 29.89 in 5.6 mi SSW 8.1 mph - N/A   Mostly Cloudy
8:30 AM 84.2 °F 92.3 °F 75.2 °F 74% 29.92 in 5.6 mi SSE 11.5 mph - N/A   Mostly Cloudy
9:00 AM 82.4 °F 88.2 °F 73.4 °F 74% 29.95 in 5.6 mi SSE 12.7 mph - N/A   Mostly Cloudy
9:30 AM 84.2 °F 89.6 °F 71.6 °F 66% 29.95 in 6.2 mi SSE 9.2 mph - N/A   Mostly Cloudy
10:00 AM 84.2 °F 88.4 °F 69.8 °F 62% 29.95 in 6.2 mi SSE 10.4 mph - N/A   Mostly Cloudy
10:30 AM 86.0 °F 88.2 °F 66.2 °F 51% 29.95 in 6.2 mi South 6.9 mph - N/A   Mostly Cloudy
11:00 AM 87.8 °F 91.4 °F 68.0 °F 52% 29.95 in 6.2 mi South 9.2 mph - N/A   Mostly Cloudy
11:30 AM 87.8 °F 91.4 °F 68.0 °F 52% 29.92 in 6.2 mi SSE 6.9 mph - N/A   Mostly Cloudy
12:00 PM 89.6 °F 92.2 °F 66.2 °F 46% 29.92 in 6.2 mi South 8.1 mph - N/A   Mostly Cloudy
12:30 PM 89.6 °F 92.2 °F 66.2 °F 46% 29.89 in 6.2 mi South 9.2 mph - N/A   Mostly Cloudy
1:00 PM 88 °F - 71 °F 47% 29.86 in 5 mi Calm Calm - -   Haze
1:00 PM 91.4 °F 94.0 °F 66.2 °F 43% 29.86 in 6.2 mi South 9.2 mph - N/A   Mostly Cloudy
1:30 PM 93.2 °F 97.7 °F 68.0 °F 44% 29.86 in 6.2 mi SSW 8.1 mph - N/A   Mostly Cloudy
2:00 PM 93.2 °F 97.7 °F 68.0 °F 44% 29.83 in 6.2 mi SSW 9.2 mph - N/A   Mostly Cloudy
2:30 PM 91.4 °F 94.0 °F 66.2 °F 43% 29.83 in 6.2 mi SSW 11.5 mph - N/A   Mostly Cloudy
3:00 PM 91.4 °F 94.0 °F 66.2 °F 43% 29.80 in 6.2 mi South 13.8 mph - N/A   Mostly Cloudy
3:30 PM 89.6 °F 93.4 °F 68.0 °F 49% 29.80 in 6.2 mi South 13.8 mph - N/A   Mostly Cloudy
4:00 PM 87.8 °F 92.6 °F 69.8 °F 55% 29.80 in 6.2 mi South 11.5 mph - N/A   Mostly Cloudy
4:30 PM 86.0 °F 91.8 °F 71.6 °F 62% 29.80 in 6.2 mi South 15.0 mph - N/A   Mostly Cloudy
5:00 PM 86.0 °F 91.8 °F 71.6 °F 62% 29.80 in 6.2 mi South 13.8 mph - N/A   Mostly Cloudy
5:30 PM 86.0 °F 91.8 °F 71.6 °F 62% 29.80 in 6.2 mi South 13.8 mph - N/A   Mostly Cloudy
6:00 PM 86.0 °F 90.4 °F 69.8 °F 58% 29.80 in 6.2 mi SSW 11.5 mph - N/A   Mostly Cloudy
6:30 PM 84.2 °F 89.6 °F 71.6 °F 66% 29.83 in 6.2 mi SSW 12.7 mph - N/A   Mostly Cloudy
7:00 PM 85 °F - 75 °F 66% 29.82 in 5 mi Calm Calm - -   Mist
7:00 PM 84.2 °F 90.9 °F 73.4 °F 70% 29.83 in 6.2 mi South 11.5 mph - N/A   Mostly Cloudy
7:30 PM 84.2 °F 92.3 °F 75.2 °F 74% 29.83 in 6.2 mi South 11.5 mph - N/A   Mostly Cloudy
8:00 PM 84.2 °F 92.3 °F 75.2 °F 74% 29.83 in 6.2 mi South 12.7 mph - N/A   Mostly Cloudy
8:30 PM 84.2 °F 92.3 °F 75.2 °F 74% 29.86 in 6.2 mi South 11.5 mph - N/A   Mostly Cloudy
9:00 PM 84.2 °F 92.3 °F 75.2 °F 74% 29.86 in 6.2 mi South 11.5 mph - N/A   Mostly Cloudy
9:30 PM 84.2 °F 90.9 °F 73.4 °F 70% 29.86 in 6.2 mi South 9.2 mph - N/A   Mostly Cloudy
10:00 PM 82.4 °F 88.2 °F 73.4 °F 74% 29.86 in 6.2 mi South 10.4 mph - N/A   Mostly Cloudy
10:30 PM 82.4 °F 88.2 °F 73.4 °F 74% 29.86 in 6.2 mi South 8.1 mph - N/A   Mostly Cloudy
11:00 PM 82.4 °F 88.2 °F 73.4 °F 74% 29.86 in 6.2 mi South 9.2 mph - N/A   Mostly Cloudy
11:30 PM 82.4 °F 88.2 °F 73.4 °F 74% 29.86 in 6.2 mi South 11.5 mph - N/A   Mostly Cloudy